This is the latest recevied weather packets stored in our database for station/object N5PRN. If no packets are shown the sender has not sent any weather packets the latest 10 day(s).
| Time | Temp. | Humidity | Pressure | Rain* | Wind** | Luminosity | Snow |
|---|---|---|---|---|---|---|---|
| 1777923138 | 25.56° C | 51% | 1014.5 hPa | 0 mm | - | 861 W/m² | - |
| 1777922836 | 25° C | 53% | 1014.6 hPa | 0 mm | - | 808 W/m² | - |
| 1777922534 | 24.44° C | 56% | 1014.7 hPa | 0 mm | - | 836 W/m² | - |
| 1777922232 | 25° C | 51% | 1014.9 hPa | 0 mm | - | 269 W/m² | - |
| 1777921929 | 25.56° C | 52% | 1014.8 hPa | 0 mm | - | 797 W/m² | - |
| 1777921624 | 25° C | 50% | 1015 hPa | 0 mm | - | 796 W/m² | - |
| 1777921321 | 24.44° C | 50% | 1015.2 hPa | 0 mm | - | 830 W/m² | - |
| 1777921017 | 25° C | 52% | 1015.1 hPa | 0 mm | - | 791 W/m² | - |
| 1777920714 | 25° C | 50% | 1015.3 hPa | 0 mm | - | 795 W/m² | - |
| 1777920410 | 24.44° C | 49% | 1015.3 hPa | 0 mm | - | 826 W/m² | - |
| 1777920105 | 24.44° C | 50% | 1015.5 hPa | 0 mm | - | 831 W/m² | - |
| 1777919802 | 23.89° C | 47% | 1015.6 hPa | 0 mm | - | 817 W/m² | - |
| 1777919499 | 24.44° C | 48% | 1015.7 hPa | 0 mm | - | 817 W/m² | - |
| 1777919197 | 23.89° C | 49% | 1015.6 hPa | 0 mm | - | 815 W/m² | - |
| 1777918894 | 24.44° C | 49% | 1015.6 hPa | 0 mm | - | 815 W/m² | - |
| 1777918592 | 24.44° C | 51% | 1015.8 hPa | 0 mm | - | 823 W/m² | - |
| 1777918290 | 24.44° C | 50% | 1015.6 hPa | 0 mm | - | 828 W/m² | - |
| 1777917989 | 24.44° C | 52% | 1015.7 hPa | 0 mm | - | 821 W/m² | - |
| 1777917687 | 24.44° C | 50% | 1015.9 hPa | 0 mm | - | 827 W/m² | - |
| 1777917383 | 23.89° C | 50% | 1015.8 hPa | 0 mm | - | 791 W/m² | - |
| 1777917080 | 24.44° C | 53% | 1015.8 hPa | 0 mm | - | 798 W/m² | - |
| 1777916779 | 23.33° C | 53% | 1016 hPa | 0 mm | - | 780 W/m² | - |
| 1777916474 | 23.89° C | 50% | 1016.1 hPa | 0 mm | - | 795 W/m² | - |
| 1777916172 | 23.89° C | 55% | 1016.1 hPa | 0 mm | - | 785 W/m² | - |
| 1777915869 | 23.89° C | 51% | 1016.1 hPa | 0 mm | - | 832 W/m² | - |
* Rain latest hour (hover to see other rain measurements)
** Current wind speed in m/s (hover to see current wind gust speed)